TimeCST,TemperatureF,Dew PointF,Humidity,Sea Level PressureIn,VisibilityMPH,Wind Direction,Wind SpeedMPH,Gust SpeedMPH,PrecipitationIn,Events,Conditions,WindDirDegrees,DateUTC
12:15 AM,49.5,39.6,69,30.17,10.0,Calm,Calm,-,N/A,,Clear,0,2012-11-08 06:15:00
12:35 AM,46.4,41.0,81,30.17,10.0,Calm,Calm,-,N/A,,Clear,0,2012-11-08 06:35:00
12:55 AM,46.9,40.1,77,30.17,10.0,Calm,Calm,-,N/A,,Clear,0,2012-11-08 06:55:00
1:15 AM,46.9,40.3,78,30.17,10.0,Calm,Calm,-,N/A,,Clear,0,2012-11-08 07:15:00
1:35 AM,45.3,40.5,83,30.17,10.0,Calm,Calm,-,N/A,,Clear,0,2012-11-08 07:35:00
1:55 AM,44.8,40.5,85,30.17,10.0,Calm,Calm,-,N/A,,Clear,0,2012-11-08 07:55:00
2:15 AM,43.3,40.3,89,30.17,10.0,Calm,Calm,-,N/A,,Clear,0,2012-11-08 08:15:00
2:35 AM,43.3,40.1,88,30.17,10.0,Calm,Calm,-,N/A,,Clear,0,2012-11-08 08:35:00
2:55 AM,43.5,40.3,88,30.18,10.0,Calm,Calm,-,N/A,,Clear,0,2012-11-08 08:55:00
3:15 AM,46.0,39.4,78,30.18,10.0,Calm,Calm,-,N/A,,Clear,0,2012-11-08 09:15:00
3:35 AM,46.4,38.5,74,30.18,10.0,Calm,Calm,-,N/A,,Clear,0,2012-11-08 09:35:00
3:55 AM,46.4,38.3,73,30.18,10.0,Calm,Calm,-,N/A,,Clear,0,2012-11-08 09:55:00
4:15 AM,45.5,38.3,76,30.18,10.0,Calm,Calm,-,N/A,,Clear,0,2012-11-08 10:15:00
4:35 AM,42.3,39.0,88,30.19,10.0,Calm,Calm,-,N/A,,Clear,0,2012-11-08 10:35:00
4:55 AM,41.7,39.7,93,30.20,10.0,Calm,Calm,-,N/A,,Clear,0,2012-11-08 10:55:00
5:15 AM,41.2,39.9,95,30.20,10.0,Calm,Calm,-,N/A,,Clear,0,2012-11-08 11:15:00
5:35 AM,40.8,40.1,97,30.21,10.0,Calm,Calm,-,N/A,,Clear,0,2012-11-08 11:35:00
5:55 AM,40.3,38.5,93,30.21,10.0,Calm,Calm,-,N/A,,Clear,0,2012-11-08 11:55:00
6:15 AM,40.6,39.0,94,30.21,10.0,Calm,Calm,-,N/A,,Clear,0,2012-11-08 12:15:00
6:35 AM,40.1,39.2,97,30.22,10.0,Calm,Calm,-,N/A,,Clear,0,2012-11-08 12:35:00
6:55 AM,40.8,39.6,95,30.23,10.0,Calm,Calm,-,N/A,,Clear,0,2012-11-08 12:55:00
7:15 AM,44.1,40.8,88,30.24,10.0,Calm,Calm,-,N/A,,Clear,0,2012-11-08 13:15:00
7:35 AM,46.8,41.2,81,30.24,10.0,Calm,Calm,-,N/A,,Clear,0,2012-11-08 13:35:00
7:55 AM,49.1,41.7,76,30.26,10.0,North,-9999.0,-,N/A,,Clear,0,2012-11-08 13:55:00
8:15 AM,51.1,42.6,73,30.26,10.0,North,-9999.0,-,N/A,,Clear,0,2012-11-08 14:15:00
8:35 AM,52.7,43.2,70,30.26,10.0,NE,4.6,-,N/A,,Clear,40,2012-11-08 14:35:00
8:55 AM,54.0,43.7,68,30.26,10.0,ENE,5.8,-,N/A,,Clear,60,2012-11-08 14:55:00
9:15 AM,55.2,43.9,66,30.26,10.0,ENE,5.8,-,N/A,,Clear,70,2012-11-08 15:15:00
9:35 AM,56.7,43.2,61,30.27,10.0,East,4.6,-,N/A,,Clear,80,2012-11-08 15:35:00
9:55 AM,57.7,42.8,57,30.27,10.0,ENE,4.6,-,N/A,,Clear,70,2012-11-08 15:55:00
10:15 AM,59.0,41.9,53,30.27,10.0,ENE,4.6,-,N/A,,Clear,70,2012-11-08 16:15:00
10:35 AM,60.1,41.2,50,30.26,10.0,East,3.5,-,N/A,,Clear,80,2012-11-08 16:35:00
10:55 AM,60.8,42.1,50,30.25,10.0,NE,4.6,-,N/A,,Clear,50,2012-11-08 16:55:00
11:15 AM,62.1,39.4,43,30.25,10.0,East,4.6,-,N/A,,Clear,90,2012-11-08 17:15:00
11:35 AM,61.7,38.7,43,30.24,10.0,ENE,5.8,-,N/A,,Clear,60,2012-11-08 17:35:00
11:55 AM,63.5,40.3,43,30.23,10.0,East,4.6,-,N/A,,Clear,90,2012-11-08 17:55:00
12:15 PM,64.0,39.6,41,30.22,10.0,NE,5.8,-,N/A,,Clear,50,2012-11-08 18:15:00
12:55 PM,64.8,39.6,40,30.20,10.0,NE,6.9,-,N/A,,Clear,50,2012-11-08 18:55:00
1:15 PM,64.6,40.6,42,30.19,10.0,North,3.5,-,N/A,,Clear,360,2012-11-08 19:15:00
1:35 PM,65.1,39.7,39,30.18,10.0,North,3.5,-,N/A,,Clear,360,2012-11-08 19:35:00
1:55 PM,66.7,40.3,38,30.18,10.0,NNE,3.5,-,N/A,,Clear,30,2012-11-08 19:55:00
2:15 PM,65.8,39.7,38,30.17,10.0,NE,3.5,-,N/A,,Clear,40,2012-11-08 20:15:00
2:35 PM,66.7,39.2,36,30.17,10.0,NE,3.5,-,N/A,,Clear,50,2012-11-08 20:35:00
2:55 PM,66.9,39.6,37,30.16,10.0,Calm,Calm,-,N/A,,Clear,0,2012-11-08 20:55:00
3:15 PM,66.6,38.7,36,30.16,10.0,Calm,Calm,-,N/A,,Clear,0,2012-11-08 21:15:00
3:35 PM,66.2,40.5,39,30.16,10.0,Calm,Calm,-,N/A,,Clear,0,2012-11-08 21:35:00
3:55 PM,66.6,40.3,38,30.16,10.0,East,3.5,-,N/A,,Clear,80,2012-11-08 21:55:00
4:15 PM,66.2,41.7,41,30.16,10.0,East,4.6,-,N/A,,Clear,80,2012-11-08 22:15:00
4:35 PM,65.3,42.4,43,30.16,10.0,Calm,Calm,-,N/A,,Clear,0,2012-11-08 22:35:00
4:55 PM,63.0,43.3,49,30.17,10.0,Calm,Calm,-,N/A,,Clear,0,2012-11-08 22:55:00
5:15 PM,60.1,45.5,59,30.17,10.0,Calm,Calm,-,N/A,,Clear,0,2012-11-08 23:15:00
5:35 PM,56.1,47.7,73,30.18,10.0,Calm,Calm,-,N/A,,Clear,0,2012-11-08 23:35:00
5:55 PM,55.4,47.3,74,30.18,10.0,Calm,Calm,-,N/A,,Clear,0,2012-11-08 23:55:00
6:15 PM,57.4,44.4,62,30.19,10.0,Calm,Calm,-,N/A,,Clear,0,2012-11-09 00:15:00
6:35 PM,57.4,42.8,58,30.18,10.0,Calm,Calm,-,N/A,,Clear,0,2012-11-09 00:35:00
6:55 PM,53.4,45.9,76,30.19,10.0,Calm,Calm,-,N/A,,Clear,0,2012-11-09 00:55:00
7:15 PM,52.7,46.0,78,30.20,10.0,Calm,Calm,-,N/A,,Clear,0,2012-11-09 01:15:00
7:35 PM,51.1,45.7,82,30.20,10.0,Calm,Calm,-,N/A,,Clear,0,2012-11-09 01:35:00
7:55 PM,50.5,45.7,83,30.21,10.0,Calm,Calm,-,N/A,,Clear,0,2012-11-09 01:55:00
8:15 PM,49.5,45.9,87,30.21,10.0,Calm,Calm,-,N/A,,Clear,0,2012-11-09 02:15:00
8:35 PM,49.6,46.0,87,30.21,10.0,Calm,Calm,-,N/A,,Clear,0,2012-11-09 02:35:00
8:55 PM,49.5,46.2,89,30.21,10.0,Calm,Calm,-,N/A,,Clear,0,2012-11-09 02:55:00
9:15 PM,48.4,45.3,89,30.20,10.0,Calm,Calm,-,N/A,,Clear,0,2012-11-09 03:15:00
9:35 PM,47.7,45.5,92,30.21,10.0,Calm,Calm,-,N/A,,Clear,0,2012-11-09 03:35:00
9:55 PM,48.2,45.3,90,30.21,10.0,Calm,Calm,-,N/A,,Clear,0,2012-11-09 03:55:00
10:15 PM,46.4,44.8,94,30.21,10.0,Calm,Calm,-,N/A,,Clear,0,2012-11-09 04:15:00
10:35 PM,46.8,44.8,93,30.20,10.0,Calm,Calm,-,N/A,,Clear,0,2012-11-09 04:35:00
10:55 PM,47.1,44.8,92,30.21,10.0,Calm,Calm,-,N/A,,Clear,0,2012-11-09 04:55:00
11:15 PM,46.4,44.4,93,30.21,10.0,Calm,Calm,-,N/A,,Clear,0,2012-11-09 05:15:00
11:35 PM,46.2,43.9,92,30.20,10.0,Calm,Calm,-,N/A,,Clear,0,2012-11-09 05:35:00
11:55 PM,46.2,44.6,94,30.20,10.0,Calm,Calm,-,N/A,,Clear,0,2012-11-09 05:55:00